Theta_e
347 355 365 360 360 362 362 363 363 362 363 364 363 361 361 362 363 362 361 360 360 360 359 358 358 360 359 360 359 360 359 358 361 360 359 360 360 361 361 357 356 355 359
351 357 365 363 361 362 363 364 364 364 362 363 363 362 361 361 361 361 360 360 360 361 360 361 360 356 360 360 360 360 359 359 360 359 358 358 359 358 360 358 358 356 358
352 358 360 364 363 361 363 364 363 365 362 363 363 362 362 362 361 360 361 362 361 361 361 360 361 359 357 360 360 360 360 359 360 359 358 351 352 359 359 358 359 358 359
355 359 358 364 366 363 364 364 363 363 363 362 362 361 362 361 362 360 362 362 361 361 361 360 360 361 360 358 357 360 360 360 360 359 352 351 352 359 358 358 358 359 358
356 359 359 365 366 363 365 365 362 359 362 363 362 362 362 362 362 362 361 362 361 361 361 361 360 360 359 359 358 358 357 357 359 349 346 346 350 356 358 356 356 358 353
355 357 363 364 364 364 365 362 363 362 365 364 364 363 363 363 363 361 362 360 361 361 361 360 360 359 359 358 358 357 357 355 353 346 346 349 348 356 357 357 358 353 356
354 357 360 366 366 364 363 363 364 363 361 361 361 360 361 360 360 360 362 361 360 360 360 359 360 360 359 357 356 355 353 354 352 349 349 351 351 361 359 359 358 357 357
355 357 359 364 366 365 363 365 364 365 364 363 362 363 363 363 363 362 358 357 358 358 362 361 360 358 356 355 352 351 354 354 350 349 350 350 355 360 359 359 359 359 358
356 356 357 359 360 364 365 365 364 363 364 364 365 362 360 361 362 362 360 358 357 356 358 359 360 359 360 358 356 353 352 357 343 344 349 349 360 361 360 360 359 356 358
354 354 353 355 358 356 358 364 367 364 361 361 361 362 363 362 363 363 363 361 360 358 355 356 357 358 360 359 359 357 354 355 348 338 341 350 360 362 360 359 358 359 357
351 352 351 352 353 354 355 361 364 364 362 363 362 363 361 353 352 355 359 360 357 358 359 359 359 359 360 360 360 359 358 348 344 347 342 354 360 360 359 358 359 359 358
346 349 351 350 351 352 357 354 355 354 355 356 356 355 356 354 353 354 356 358 358 355 355 359 360 360 358 351 351 356 349 349 346 344 347 353 359 359 360 358 359 359 359
346 350 351 351 351 350 352 349 351 351 352 352 350 350 352 352 351 351 349 349 345 350 343 346 348 350 347 347 349 347 347 347 345 342 345 355 359 358 360 360 359 359 359
343 347 350 352 351 348 350 348 349 349 350 349 350 350 348 351 349 350 349 347 344 343 343 343 343 344 345 345 346 346 344 345 346 342 343 353 360 359 359 361 360 357 358
341 345 348 349 349 348 345 346 348 348 349 349 349 350 350 348 349 349 348 345 344 346 343 340 341 342 343 345 344 344 344 346 347 346 342 352 359 360 362 361 360 359 358
343 344 349 350 350 348 345 345 346 347 349 348 348 347 350 349 348 347 347 347 345 345 345 344 343 344 343 344 344 346 346 346 347 347 346 344 356 358 359 358 359 360 359
343 345 344 347 347 344 345 345 345 346 347 347 347 347 346 350 348 348 346 344 347 346 346 346 344 344 345 345 345 348 347 347 348 346 346 346 348 358 359 358 358 360 362
340 341 342 345 342 343 345 345 346 344 344 346 347 347 347 348 351 348 347 347 345 346 345 344 345 344 343 342 343 345 347 348 350 348 346 346 346 349 354 360 359 360 360
338 340 339 340 342 343 343 345 344 344 342 343 347 349 350 350 351 349 347 346 345 345 345 346 346 344 341 342 343 343 345 347 348 351 346 346 346 347 346 352 359 359 359
340 341 342 343 342 344 345 345 347 346 347 350 350 351 352 343 343 339 341 346 347 346 345 344 347 344 344 343 346 347 346 346 346 346 344 347 347 347 347 345 347 351 358
341 339 340 341 344 346 345 346 345 346 347 347 350 349 349 348 347 349 347 347 346 345 342 345 345 343 343 345 345 345 344 346 345 345 346 344 343 345 346 347 346 347 349
338 339 337 340 342 347 346 345 348 347 348 343 347 346 347 349 348 344 343 344 346 347 342 342 342 341 341 342 340 338 335 335 344 346 346 345 344 345 345 348 347 346 348
336 337 337 337 338 347 349 348 349 346 345 343 344 346 345 348 346 345 345 344 343 341 342 343 344 341 338 340 343 337 331 331 332 340 343 344 344 343 345 348 348 347 348
338 339 339 338 337 339 350 348 346 341 339 343 342 341 342 345 345 345 348 344 343 343 343 343 347 343 341 338 339 344 343 339 334 331 338 343 343 343 344 346 348 348 349
340 340 342 340 337 341 345 348 345 342 343 344 343 343 345 344 346 347 346 344 343 343 342 342 342 341 340 341 341 342 342 342 342 337 333 336 341 342 344 345 348 348 349
341 343 344 340 338 344 347 348 345 344 343 341 339 338 338 339 340 341 341 340 339 338 338 339 340 341 341 340 340 343 340 340 339 338 336 337 335 339 344 345 346 347 348
Wind_Speed
7 7 14 15 14 14 15 15 15 16 16 17 16 16 15 15 15 14 14 12 10 10 9 9 9 8 8 9 8 8 9 11 13 13 12 12 10 10 12 12 11 7 13
11 9 17 15 15 14 14 14 14 15 15 15 16 16 14 14 13 13 12 12 11 10 9 9 11 9 9 10 10 10 10 10 11 12 12 10 10 8 12 11 10 8 11
13 10 13 15 15 14 14 14 14 13 15 14 14 13 14 13 12 12 12 12 12 11 10 9 11 10 10 10 9 11 10 10 11 9 9 4 4 9 10 10 10 10 10
12 10 11 15 14 15 13 14 13 12 12 13 12 11 12 11 12 12 10 11 11 10 10 9 9 10 9 9 9 9 9 11 11 9 4 2 5 9 9 9 9 8 9
10 11 11 16 14 16 14 13 14 13 12 11 11 12 11 11 11 11 10 9 9 10 9 9 8 8 8 8 9 10 9 8 9 6 3 2 3 7 9 9 9 9 8
8 10 15 18 17 16 15 13 13 12 12 12 10 11 10 10 12 10 8 8 9 8 9 8 8 7 7 8 8 8 6 4 7 4 3 3 3 9 10 10 10 9 8
8 8 12 16 16 16 15 14 13 14 12 12 12 10 10 9 9 8 10 9 9 8 8 8 8 8 6 5 5 5 2 2 2 4 5 5 5 10 11 10 10 10 8
10 8 9 15 15 15 15 14 13 14 13 12 11 10 11 11 10 10 9 8 7 7 7 8 8 8 7 5 4 2 0 4 2 4 5 4 7 11 12 10 10 10 9
9 7 6 7 12 15 14 14 14 13 12 11 11 12 10 10 10 10 11 10 9 9 8 6 7 7 7 6 4 3 1 3 5 3 4 3 9 11 11 12 12 11 9
8 6 5 5 5 5 6 13 14 13 13 11 11 10 10 10 10 10 10 10 10 9 9 8 9 9 8 7 6 4 3 3 3 4 3 4 10 12 11 11 11 11 10
6 4 5 5 5 4 4 7 12 13 13 12 12 12 10 4 5 7 8 8 8 8 10 10 10 10 10 10 9 7 6 2 2 2 3 8 11 13 12 11 11 11 11
9 7 6 6 6 6 5 4 4 4 3 4 4 5 4 4 4 5 7 9 10 9 9 10 12 12 11 3 3 8 1 3 3 3 3 10 14 14 13 13 13 12 12
14 10 10 8 7 6 6 3 2 2 2 2 5 4 4 3 3 3 2 3 2 7 2 5 5 3 5 3 4 3 3 4 3 3 5 10 16 16 16 15 14 14 14
15 15 13 11 9 7 4 4 4 3 3 3 4 5 3 3 4 4 3 4 3 3 5 4 3 4 5 6 5 5 5 4 3 3 5 12 15 18 18 17 16 16 15
14 14 14 12 10 8 5 4 4 5 4 4 5 5 4 4 4 3 4 3 4 3 4 4 4 4 5 6 6 5 6 6 6 4 3 14 14 18 18 17 18 17 17
9 12 12 12 11 8 7 6 5 4 6 5 4 5 6 5 5 3 4 5 3 3 4 4 7 5 5 4 6 7 7 6 6 6 5 6 16 18 18 18 17 18 19
13 8 9 12 10 9 9 6 5 6 4 5 5 6 6 6 5 5 4 5 5 4 5 5 5 4 4 4 7 6 5 7 5 7 6 6 8 19 21 18 19 20 19
9 15 14 11 10 10 9 6 5 4 4 5 4 4 7 7 8 6 6 6 4 3 3 3 4 6 6 5 6 6 6 6 6 7 6 6 6 6 13 21 21 22 21
15 14 8 10 10 10 7 5 5 4 4 4 3 4 6 6 5 4 3 3 4 3 3 4 5 6 4 4 6 5 5 6 7 5 8 8 7 8 6 12 20 22 24
9 8 9 9 10 8 5 3 3 4 3 2 3 4 6 3 3 4 3 4 4 3 0 3 7 3 3 4 5 6 6 7 6 6 7 7 9 11 10 10 8 12 23
6 7 7 8 7 5 2 3 2 3 2 2 3 3 3 2 2 4 2 3 3 3 4 3 2 2 3 2 3 4 6 9 10 8 7 8 10 11 10 10 8 7 9
12 8 5 6 7 5 3 2 1 1 1 1 2 4 3 2 0 1 1 1 3 1 3 3 2 2 2 2 3 3 4 3 6 9 8 9 11 8 10 11 10 11 9
9 10 8 5 5 5 5 2 2 3 1 1 1 2 2 3 2 1 3 1 2 2 3 2 3 3 2 3 5 3 3 3 2 1 6 6 6 6 7 6 9 10 10
10 6 7 7 8 6 7 4 5 2 2 2 1 1 2 4 4 1 2 2 2 2 3 3 3 3 2 5 2 6 7 5 4 3 2 3 4 6 7 5 7 8 8
10 9 7 7 6 5 5 5 4 3 2 1 1 4 4 4 2 4 3 3 3 3 3 4 5 4 1 3 4 5 5 7 8 7 5 3 2 3 4 5 6 6 7
9 9 8 8 7 7 5 5 6 6 4 3 4 4 4 3 3 5 5 3 2 2 3 4 3 4 3 3 4 5 5 3 2 4 5 5 4 4 3 4 4 5 6
Wind_Direction
169 165 150 148 141 133 126 116 114 114 117 115 118 120 124 121 124 129 131 131 128 133 129 128 125 118 111 105 105 98 103 113 116 116 119 124 123 122 111 111 111 112 112
142 156 149 150 144 137 130 121 118 117 121 119 120 122 124 124 125 133 137 137 135 140 129 131 124 122 119 123 125 118 118 122 125 125 128 128 127 121 115 117 117 115 116
140 155 150 152 148 143 136 129 128 126 130 128 123 123 124 129 140 134 132 141 142 132 131 135 128 128 126 123 124 127 131 135 130 121 121 111 135 134 126 123 121 121 120
140 147 154 153 152 145 145 136 131 135 129 133 130 126 126 132 137 144 136 136 132 134 140 136 135 124 128 137 138 132 135 135 127 114 74 101 130 147 138 134 121 121 117
136 145 159 154 151 149 148 137 134 138 140 134 136 141 137 138 132 141 137 139 137 141 142 137 131 132 135 142 129 132 135 152 138 122 99 66 117 145 141 137 146 131 123
127 143 159 158 155 156 146 145 139 144 137 143 141 131 135 141 145 141 140 142 150 157 152 142 139 142 141 145 131 130 132 140 174 168 188 175 147 156 155 155 150 145 146
137 149 157 162 159 159 151 152 148 148 146 145 145 147 144 150 146 151 151 161 161 166 164 155 151 149 150 140 127 131 150 227 162 177 177 161 176 171 165 166 155 155 157
145 149 160 167 163 161 159 158 152 156 160 159 151 159 156 162 165 161 167 171 178 177 188 169 173 164 162 160 142 160 81 38 121 147 147 157 191 172 174 161 163 157 167
147 147 163 170 170 168 165 163 164 165 165 159 160 167 171 173 176 179 181 181 184 192 196 198 203 201 193 194 182 175 224 80 108 123 157 175 202 192 178 175 171 172 170
150 156 156 162 161 159 176 178 174 168 172 172 174 179 183 186 193 194 196 197 191 198 204 208 215 231 230 226 215 206 211 134 165 178 201 188 202 195 191 189 184 179 182
158 164 159 158 151 155 188 191 182 185 183 185 187 191 193 193 208 214 218 209 206 213 215 217 222 231 242 250 250 233 221 176 171 187 195 212 201 197 199 202 199 192 189
176 180 177 169 171 168 191 220 188 201 191 188 193 212 175 202 216 205 222 224 222 222 233 237 237 237 243 243 275 267 236 199 199 216 218 225 211 205 205 206 204 203 197
177 178 184 184 180 181 201 187 211 206 184 213 217 218 223 216 229 239 232 246 243 253 256 262 263 266 252 245 247 246 250 249 214 228 238 238 223 211 211 208 206 209 211
183 187 185 186 186 195 199 184 200 202 194 209 222 218 214 230 227 226 220 230 231 254 256 243 239 250 261 250 237 246 240 229 216 225 230 237 221 214 219 210 207 215 214
186 190 191 183 190 196 201 188 196 205 209 207 215 219 191 232 238 222 229 209 220 230 235 234 234 239 248 246 243 234 243 232 220 208 215 232 227 216 216 216 212 212 218
190 200 183 192 192 190 199 192 206 208 224 213 218 224 208 215 233 221 242 245 227 218 245 235 241 230 232 230 245 238 242 236 229 211 214 227 234 218 216 223 223 214 220
191 193 212 192 190 194 198 196 197 218 212 228 220 211 213 214 217 219 224 238 234 209 231 244 246 243 239 228 236 238 241 245 227 237 217 210 232 231 222 227 228 226 218
179 170 194 195 191 196 203 198 205 224 230 223 222 190 208 214 216 219 233 242 236 220 240 236 254 259 241 225 237 232 236 242 220 215 222 225 219 228 235 236 233 223 221
176 187 179 184 179 192 190 187 203 208 229 235 217 192 218 212 223 228 244 240 201 214 230 243 257 239 243 247 252 248 231 231 238 216 214 211 218 223 226 242 233 225 225
177 167 168 185 171 162 165 179 213 198 183 212 211 206 211 214 238 243 262 223 187 179 253 226 242 224 248 250 253 254 247 242 229 212 208 214 215 219 219 223 229 231 227
149 133 162 160 156 139 152 177 208 202 178 209 205 170 252 257 336 314 332 169 219 188 237 307 264 262 271 229 263 248 247 234 230 221 217 213 222 222 221 213 213 219 228
169 156 172 176 162 172 161 168 108 181 253 165 222 243 215 237 217 245 300 205 196 254 300 290 290 300 284 192 246 262 286 300 242 233 221 217 222 219 220 214 209 213 219
174 174 168 197 196 180 174 104 81 36 337 32 226 239 240 178 197 227 319 334 337 295 303 303 261 217 268 270 216 235 286 247 305 241 233 231 223 209 218 215 213 221 214
194 169 157 176 199 195 172 161 170 171 239 231 249 248 148 166 208 268 265 181 21 322 314 292 279 249 217 296 278 239 243 241 271 307 279 237 204 217 209 205 219 213 224
173 185 175 177 191 202 179 182 148 172 199 18 53 67 66 119 125 57 68 49 30 5 320 301 300 305 246 301 294 299 261 237 229 239 254 278 326 233 219 217 215 229 216
166 163 167 178 191 187 186 167 172 177 161 103 86 90 78 81 69 54 48 35 21 1 346 329 329 350 330 288 279 285 310 284 239 216 225 246 246 268 244 251 232 226 216